SUPERBIRD-B3

Last updated on Thu Nov 21 2024 00:02:43 GMT+0000 (Coordinated Universal Time)

1 43271U 18033A 24325.57174531 -.00000091 00000+0 00000+0 0 9990 2 43271 0.0099 21.0425 0001361 229.5170 177.3576 1.00270767 24303
UTC large
Height (km)
Speed (km/s)
/
Latitude / Longitude
Inclination (degrees)
Orbital Period (minutes)
Azimuth
Elevation
Range (km)
Doppler Factor

Next 0 passes for location: London (51.5072 / 0.1276)

Sorry there are no passes over London.